User: anonymous   Login
Location: Unspecified
(0.0000°N, 0.0000°E)
Time: 04:08:16
(UTC+00:00)
Language:

OGO 1 - Orbit

View from above orbital plane
View from above orbital plane
View from above satellite
View from above satellite

Ground track
Ground track

The orbit data is extracted from the following two-line orbital elements,

1 00879U 64054A   18058.50187318 -.00000683  00000-0  00000+0 0  9995
2 00879  83.4168 329.0886 6944625 200.9801 359.5309  0.37761260 18395
Epoch (UTC): 27 February 2018 12:02:41
Eccentricity: 0.6944625
inclination: 83.4168°
perigee height: 18326 km
apogee height: 130625 km
right ascension of ascending node: 329.0886°
argument of perigee: 200.9801°
revolutions per day: 0.37761260
mean anomaly at epoch: 359.5309°
orbit number at epoch: 1839

The dashed part of the orbit path shows where the satellite is in the earth's shadow,  

DLR